Torna al catalogo

STARLINK-38104

AttivoComunicazioniSSO
NORAD 100185·PAYLOAD·🇺🇸 United States

Lanciato Aug 1, 2026 da Vandenberg Space Force Base

Loading…

Prossimi Passaggi (prossime 24 ore)

TLE

AggiornatoSource: Space-Track

Epoca: Sep 14, 2026, 12:31 UTC

1 A0185U 26175G   26257.52172703  .00262320  00000-0  16991-2 0  9997
2 A0185  97.2820  99.6376 0001803 115.3338 244.8114 15.75284479  8239

Traccia STARLINK-38104 in tempo reale con AllMySat

Download on the App Store